Location: Unspecified
(0.0000°N, 0.0000°E)
Time: 04:21:49
(UTC+02:00)

ATLAS V CENTAUR R/B - Visible Passes

Search period start: 02 October 2014 00:00
Search period end: 12 October 2014 00:00
Orbit: 230 x 30370 km, 17.8° (Epoch: 30 September)

Date Brightness Start Highest point End Pass type
(mag) Time Alt. Az. Time Alt. Az. Time Alt. Az.
02 Oct 7.8 03:37:34 86° E 03:37:34 86° E 11:24:54 10° E visible
03 Oct 7.8 06:05:14 30° W 13:44:10 75° SSE 14:05:02 10° E visible
05 Oct 8.2 02:10:26 49° E 02:10:26 49° E 09:43:06 10° ESE visible
06 Oct 7.9 04:37:01 63° W 04:54:38 79° SSW 12:29:59 10° E visible
07 Oct 7.0 07:03:11 11° W 14:53:20 86° SSE 15:05:06 10° ENE visible
08 Oct 8.8 00:40:24 19° E 00:40:24 19° E 07:39:57 10° ESE visible
09 Oct 8.0 03:05:54 76° ESE 03:05:54 76° ESE 10:48:45 10° E visible
10 Oct 8.0 05:30:59 39° W 13:01:46 76° SSE 13:27:20 10° E visible
